CCA950 LIMC-ZBAA

Flight info

Callsign CCA950
Flight time N/A
Altitude 37000
Route OSKOR DCT NESTI DCT MALUG DCT GAMLI DCT NAVTI DCT POLON/N0477F390 DCT BOKSU DCT LAFAT/K0885F390 DCT INKUZ DCT BENIM DCT RATIN N869 BAPUN P874 DIKIN M61 SUMOM P983 LEGBI/K0911F410 P983 ABESA L158 TR A308 GINOM/K0898S1250 Y655 INTIK A575 LHT B458 BIKUT W69 GUVBA
Aircraft A359/H-SDE2E3GHIJ3J4J5LM1ORWXY/LB1D1

Departure

Time N/A
Airport Milan Malpensa International Airport (LIMC)

Arrival

Time 2026-05-03 21:21
Airport Beijing Capital International Airport (ZBAA)
Time Latitude Longitude Altitude Speed Heading
2026-05-03 20:15 44.50778 110.71522 38796 ft 523 kts 133°
2026-05-03 20:15 44.45768 110.78848 38796 ft 524 kts 133°
2026-05-03 20:16 44.40725 110.86204 38794 ft 524 kts 133°
2026-05-03 20:16 44.35681 110.93541 38802 ft 524 kts 133°
2026-05-03 20:17 44.30623 111.00880 38810 ft 524 kts 133°
2026-05-03 20:17 44.25560 111.08205 38813 ft 524 kts 133°
2026-05-03 20:18 44.20492 111.15520 38817 ft 524 kts 133°
2026-05-03 20:18 44.15446 111.22782 38808 ft 524 kts 133°
2026-05-03 20:19 44.10368 111.30072 38825 ft 524 kts 133°
2026-05-03 20:19 44.05293 111.37339 38835 ft 524 kts 133°
2026-05-03 20:20 44.00213 111.44594 38834 ft 524 kts 133°
2026-05-03 20:20 43.95122 111.51845 38850 ft 524 kts 133°
2026-05-03 20:21 43.90071 111.59021 38840 ft 522 kts 133°
2026-05-03 20:21 43.84990 111.66220 38849 ft 522 kts 133°
2026-05-03 20:22 43.79901 111.73412 38846 ft 523 kts 133°
2026-05-03 20:22 43.74807 111.80593 38848 ft 522 kts 133°
2026-05-03 20:23 43.69693 111.87735 38854 ft 521 kts 135°
2026-05-03 20:23 43.63893 111.93655 38855 ft 522 kts 147°
2026-05-03 20:24 43.57716 111.98941 38858 ft 524 kts 148°
2026-05-03 20:24 43.51465 112.04142 38865 ft 524 kts 148°
2026-05-03 20:25 43.45237 112.09367 38864 ft 524 kts 148°
2026-05-03 20:25 43.38880 112.14278 38865 ft 524 kts 153°
2026-05-03 20:26 43.32337 112.18742 38873 ft 526 kts 154°
2026-05-03 20:26 43.26426 112.22687 38867 ft 524 kts 154°
2026-05-03 20:27 43.19875 112.27045 38870 ft 524 kts 154°
2026-05-03 20:27 43.13364 112.31379 38868 ft 524 kts 154°
2026-05-03 20:28 43.06794 112.35748 38886 ft 525 kts 154°
2026-05-03 20:28 43.00231 112.40102 38881 ft 523 kts 154°
2026-05-03 20:29 42.93673 112.44444 38882 ft 523 kts 154°
2026-05-03 20:29 42.87120 112.48770 38886 ft 523 kts 154°
2026-05-03 20:30 42.80565 112.53087 38901 ft 523 kts 154°
2026-05-03 20:30 42.74017 112.57391 38895 ft 521 kts 154°
2026-05-03 20:31 42.67478 112.61678 38900 ft 522 kts 154°
2026-05-03 20:31 42.60934 112.65958 38906 ft 522 kts 154°
2026-05-03 20:32 42.54415 112.70212 38905 ft 522 kts 154°
2026-05-03 20:32 42.47865 112.74477 38907 ft 522 kts 155°
2026-05-03 20:33 42.41286 112.78750 38936 ft 523 kts 155°
2026-05-03 20:33 42.34766 112.82974 38933 ft 522 kts 155°
2026-05-03 20:34 42.28177 112.87234 38946 ft 522 kts 155°
2026-05-03 20:34 42.21653 112.91442 38955 ft 522 kts 155°
2026-05-03 20:35 42.15078 112.95673 38974 ft 522 kts 155°
2026-05-03 20:35 42.08522 112.99882 38992 ft 522 kts 155°
2026-05-03 20:36 42.01972 113.04078 38989 ft 522 kts 155°
2026-05-03 20:36 41.95386 113.08287 39006 ft 522 kts 155°
2026-05-03 20:37 41.88861 113.12448 39029 ft 523 kts 155°
2026-05-03 20:37 41.82284 113.16638 39017 ft 523 kts 155°
2026-05-03 20:38 41.75719 113.20848 39027 ft 523 kts 155°
2026-05-03 20:38 41.69158 113.25048 39032 ft 523 kts 155°
2026-05-03 20:39 41.62587 113.29243 39032 ft 523 kts 155°
2026-05-03 20:39 41.56008 113.33432 39032 ft 523 kts 156°
2026-05-03 20:40 41.49436 113.37607 39049 ft 523 kts 156°
2026-05-03 20:40 41.42908 113.41745 39056 ft 523 kts 156°
2026-05-03 20:41 41.36334 113.45902 39058 ft 523 kts 156°
2026-05-03 20:41 41.29751 113.50057 39065 ft 523 kts 156°
2026-05-03 20:42 41.23175 113.54207 39075 ft 523 kts 156°
2026-05-03 20:42 41.17705 113.57642 39077 ft 523 kts 156°
2026-05-03 20:43 41.11127 113.61759 39072 ft 523 kts 156°
2026-05-03 20:43 41.04541 113.65875 39075 ft 523 kts 156°
2026-05-03 20:44 40.97960 113.69982 39073 ft 523 kts 156°
2026-05-03 20:44 40.91364 113.74090 39073 ft 523 kts 156°
2026-05-03 20:45 40.84811 113.78162 39069 ft 522 kts 156°
2026-05-03 20:45 40.78231 113.82242 39070 ft 522 kts 156°
2026-05-03 20:46 40.71653 113.86311 39068 ft 522 kts 156°
2026-05-03 20:46 40.65059 113.90382 39080 ft 522 kts 156°
2026-05-03 20:47 40.58485 113.94431 39079 ft 522 kts 156°
2026-05-03 20:47 40.52600 113.99846 39079 ft 524 kts 131°
2026-05-03 20:47 40.50538 114.03778 39089 ft 521 kts 115°
2026-05-03 20:48 40.49295 114.08242 39101 ft 517 kts 99°
2026-05-03 20:48 40.48954 114.12905 39094 ft 511 kts 84°
2026-05-03 20:48 40.49135 114.17562 38939 ft 513 kts 86°
2026-05-03 20:48 40.49174 114.22159 38710 ft 514 kts 85°
2026-05-03 20:49 40.49199 114.26967 38423 ft 515 kts 87°
2026-05-03 20:49 40.49136 114.31671 38140 ft 515 kts 88°
2026-05-03 20:49 40.49009 114.36374 37857 ft 515 kts 89°
2026-05-03 20:49 40.48844 114.41072 37494 ft 513 kts 90°
2026-05-03 20:50 40.48658 114.45740 36854 ft 511 kts 90°
2026-05-03 20:50 40.48459 114.50393 36182 ft 510 kts 90°
2026-05-03 20:50 40.48254 114.55038 35490 ft 509 kts 90°
2026-05-03 20:50 40.48046 114.59619 34788 ft 509 kts 90°
2026-05-03 20:51 40.47832 114.64262 33974 ft 510 kts 90°
2026-05-03 20:51 40.47615 114.68925 33073 ft 510 kts 90°
2026-05-03 20:51 40.47395 114.73577 32227 ft 510 kts 90°
2026-05-03 20:51 40.47173 114.78239 31360 ft 511 kts 90°
2026-05-03 20:52 40.46948 114.82903 30479 ft 511 kts 90°
2026-05-03 20:52 40.46721 114.87571 29505 ft 512 kts 90°
2026-05-03 20:52 40.46492 114.92215 28790 ft 507 kts 90°
2026-05-03 20:52 40.46263 114.96808 28108 ft 501 kts 90°
2026-05-03 20:53 40.46039 115.01289 27466 ft 496 kts 90°
2026-05-03 20:53 40.45813 115.05794 26810 ft 491 kts 90°
2026-05-03 20:53 40.45588 115.10246 26158 ft 486 kts 90°
2026-05-03 20:53 40.45362 115.14659 25499 ft 482 kts 90°
2026-05-03 20:54 40.45136 115.19042 24842 ft 478 kts 90°
2026-05-03 20:54 40.44688 115.27663 23567 ft 470 kts 90°
2026-05-03 20:54 40.44465 115.31928 22877 ft 464 kts 90°
2026-05-03 20:55 40.44242 115.36141 22254 ft 459 kts 90°
2026-05-03 20:55 40.44021 115.40294 21621 ft 453 kts 90°
2026-05-03 20:55 40.43803 115.44353 21015 ft 448 kts 90°
2026-05-03 20:55 40.43584 115.48423 20399 ft 444 kts 90°
2026-05-03 20:56 40.43366 115.52435 19777 ft 440 kts 90°
2026-05-03 20:56 40.43212 115.56426 19461 ft 437 kts 86°
2026-05-03 20:56 40.43204 115.60458 19239 ft 441 kts 86°
2026-05-03 20:56 40.43205 115.64487 18998 ft 441 kts 86°
2026-05-03 20:57 40.43193 115.68511 18711 ft 440 kts 86°
2026-05-03 20:57 40.43171 115.72481 18441 ft 439 kts 86°
2026-05-03 20:57 40.43142 115.76479 18154 ft 437 kts 86°
2026-05-03 20:57 40.43114 115.80471 17869 ft 436 kts 86°
2026-05-03 20:58 40.43078 115.84449 17609 ft 434 kts 86°
2026-05-03 20:58 40.43039 115.88401 17337 ft 432 kts 87°
2026-05-03 20:58 40.42999 115.92333 17062 ft 430 kts 87°
2026-05-03 20:58 40.42957 115.96257 16805 ft 428 kts 87°
2026-05-03 20:59 40.42915 116.00161 16539 ft 427 kts 87°
2026-05-03 20:59 40.42872 116.04000 16267 ft 426 kts 87°
2026-05-03 20:59 40.42827 116.07919 15995 ft 424 kts 87°
2026-05-03 20:59 40.42780 116.11737 15750 ft 422 kts 87°
2026-05-03 21:00 40.42733 116.15582 15473 ft 420 kts 87°
2026-05-03 21:00 40.42702 116.18174 15303 ft 420 kts 87°
2026-05-03 21:00 40.42638 116.23241 14975 ft 417 kts 87°
2026-05-03 21:00 40.42588 116.27061 14699 ft 416 kts 87°
2026-05-03 21:01 40.42538 116.30811 14450 ft 415 kts 87°
2026-05-03 21:01 40.42494 116.34593 14192 ft 414 kts 87°
2026-05-03 21:01 40.42442 116.38371 13926 ft 412 kts 87°
2026-05-03 21:01 40.42384 116.42125 13652 ft 411 kts 87°
2026-05-03 21:02 40.42327 116.45864 13389 ft 409 kts 87°
2026-05-03 21:02 40.42270 116.49587 13149 ft 407 kts 88°
2026-05-03 21:02 40.42212 116.53301 12878 ft 405 kts 88°
2026-05-03 21:02 40.42154 116.56991 12645 ft 404 kts 88°
2026-05-03 21:03 40.42078 116.60661 12383 ft 402 kts 90°
2026-05-03 21:03 40.41551 116.64279 12139 ft 407 kts 108°
2026-05-03 21:03 40.40143 116.67490 11891 ft 409 kts 129°
2026-05-03 21:03 40.37979 116.69879 11642 ft 408 kts 150°
2026-05-03 21:04 40.35365 116.71139 11382 ft 405 kts 171°
2026-05-03 21:04 40.32602 116.71146 11206 ft 389 kts 191°
2026-05-03 21:04 40.30003 116.70507 10984 ft 372 kts 191°
2026-05-03 21:04 40.27465 116.70416 10745 ft 357 kts 178°
2026-05-03 21:05 40.25062 116.70666 10520 ft 333 kts 176°
2026-05-03 21:05 40.22832 116.70963 10314 ft 313 kts 175°
2026-05-03 21:05 40.20691 116.71266 10112 ft 308 kts 175°
2026-05-03 21:05 40.18560 116.71578 9900 ft 309 kts 175°
2026-05-03 21:06 40.16429 116.71897 9675 ft 307 kts 175°
2026-05-03 21:06 40.14309 116.72219 9475 ft 306 kts 175°
2026-05-03 21:06 40.12198 116.72542 9288 ft 305 kts 175°
2026-05-03 21:06 40.10120 116.72868 9112 ft 303 kts 175°
2026-05-03 21:07 40.08027 116.73190 8904 ft 302 kts 175°
2026-05-03 21:07 40.05947 116.73508 8749 ft 300 kts 175°
2026-05-03 21:07 40.03876 116.73826 8558 ft 299 kts 175°
2026-05-03 21:07 40.01806 116.74153 8380 ft 298 kts 174°
2026-05-03 21:08 39.99753 116.74468 8186 ft 296 kts 175°
2026-05-03 21:08 39.97710 116.74778 8011 ft 295 kts 175°
2026-05-03 21:08 39.95677 116.75089 7830 ft 293 kts 175°
2026-05-03 21:08 39.93655 116.75398 7649 ft 292 kts 174°
2026-05-03 21:09 39.91631 116.75709 7467 ft 291 kts 174°
2026-05-03 21:09 39.89627 116.76017 7286 ft 289 kts 174°
2026-05-03 21:09 39.87632 116.76323 7109 ft 288 kts 174°
2026-05-03 21:09 39.85674 116.76623 6941 ft 287 kts 174°
2026-05-03 21:10 39.83693 116.76927 6758 ft 285 kts 174°
2026-05-03 21:10 39.81725 116.77229 6580 ft 284 kts 174°
2026-05-03 21:10 39.79765 116.77530 6403 ft 283 kts 174°
2026-05-03 21:10 39.77811 116.77829 6223 ft 282 kts 174°
2026-05-03 21:11 39.75901 116.78122 6074 ft 270 kts 174°
2026-05-03 21:11 39.74073 116.78403 5913 ft 259 kts 174°
2026-05-03 21:11 39.72311 116.78674 5750 ft 249 kts 174°
2026-05-03 21:11 39.70624 116.78710 5589 ft 237 kts 192°
2026-05-03 21:12 39.69190 116.77832 5431 ft 226 kts 224°
2026-05-03 21:12 39.68351 116.76153 5294 ft 222 kts 255°
2026-05-03 21:12 39.68070 116.74217 5155 ft 221 kts 265°
2026-05-03 21:12 39.67908 116.72248 5007 ft 220 kts 265°
2026-05-03 21:13 39.67924 116.70273 4885 ft 219 kts 282°
2026-05-03 21:13 39.68577 116.68513 4731 ft 218 kts 311°
2026-05-03 21:13 39.69816 116.67437 4617 ft 219 kts 340°
2026-05-03 21:13 39.71325 116.67034 4474 ft 220 kts 352°
2026-05-03 21:14 39.72855 116.66834 4344 ft 221 kts 352°
2026-05-03 21:14 39.74385 116.66619 4202 ft 221 kts 352°
2026-05-03 21:14 39.75911 116.66401 4066 ft 220 kts 352°
2026-05-03 21:14 39.77435 116.66185 3931 ft 220 kts 352°
2026-05-03 21:15 39.78963 116.65965 3803 ft 221 kts 352°
2026-05-03 21:15 39.80487 116.65738 3653 ft 220 kts 351°
2026-05-03 21:15 39.82007 116.65505 3525 ft 220 kts 351°
2026-05-03 21:15 39.83530 116.65266 3409 ft 220 kts 351°
2026-05-03 21:16 39.85043 116.65026 3245 ft 220 kts 350°
2026-05-03 21:16 39.86565 116.64784 3108 ft 221 kts 350°
2026-05-03 21:16 39.88088 116.64543 2969 ft 220 kts 350°
2026-05-03 21:16 39.89560 116.64314 2880 ft 209 kts 350°
2026-05-03 21:17 39.90924 116.64108 2805 ft 186 kts 350°
2026-05-03 21:17 39.91753 116.63985 2770 ft 169 kts 349°
2026-05-03 21:17 39.93219 116.63763 2552 ft 156 kts 349°
2026-05-03 21:17 39.94290 116.63591 2393 ft 155 kts 348°
2026-05-03 21:18 39.95364 116.63414 2234 ft 155 kts 348°
2026-05-03 21:18 39.96408 116.63248 2025 ft 148 kts 348°
2026-05-03 21:18 39.97417 116.63093 1827 ft 145 kts 347°
2026-05-03 21:18 39.98404 116.62939 1636 ft 140 kts 347°
2026-05-03 21:19 39.99345 116.62792 1446 ft 136 kts 348°
2026-05-03 21:19 40.00284 116.62644 1278 ft 135 kts 345°
2026-05-03 21:19 40.01212 116.62472 1078 ft 135 kts 347°
2026-05-03 21:19 40.02142 116.62326 884 ft 135 kts 351°
2026-05-03 21:20 40.03065 116.62194 691 ft 132 kts 349°
2026-05-03 21:20 40.03980 116.62041 552 ft 132 kts 353°
2026-05-03 21:20 40.04898 116.61907 357 ft 131 kts 351°
2026-05-03 21:20 40.05804 116.61773 199 ft 132 kts 352°
2026-05-03 21:21 40.06693 116.61640 124 ft 117 kts 354°
2026-05-03 21:21 40.07331 116.61542 126 ft 67 kts 353°
2026-05-03 21:21 40.07672 116.61488 124 ft 43 kts 350°
2026-05-03 21:21 40.07922 116.61356 126 ft 30 kts 318°
2026-05-03 21:22 40.08006 116.61261 125 ft 14 kts 320°
2026-05-03 21:22 40.08096 116.61190 126 ft 15 kts 344°
2026-05-03 21:22 40.08126 116.61183 128 ft 0 kts 351°
2026-05-03 21:22 40.08150 116.61178 128 ft 10 kts 350°
2026-05-03 21:23 40.08209 116.61138 126 ft 9 kts 292°
2026-05-03 21:23 40.08211 116.61041 127 ft 12 kts 261°
2026-05-03 21:23 40.08196 116.60914 129 ft 16 kts 262°
2026-05-03 21:23 40.08181 116.60754 130 ft 19 kts 263°
2026-05-03 21:24 40.08163 116.60566 126 ft 21 kts 264°
2026-05-03 21:24 40.08148 116.60392 128 ft 14 kts 263°
2026-05-03 21:24 40.08136 116.60249 125 ft 18 kts 263°
2026-05-03 21:24 40.08119 116.60077 128 ft 21 kts 263°
2026-05-03 21:25 40.08101 116.59975 126 ft 1 kts 230°
2026-05-03 21:25 40.08026 116.59978 126 ft 18 kts 174°
2026-05-03 21:25 40.07891 116.59998 127 ft 21 kts 173°
2026-05-03 21:25 40.07732 116.60023 127 ft 24 kts 173°
2026-05-03 21:26 40.07555 116.60051 127 ft 27 kts 173°
2026-05-03 21:26 40.07362 116.60081 126 ft 29 kts 173°
2026-05-03 21:26 40.07241 116.60172 128 ft 24 kts 91°
2026-05-03 21:26 40.07257 116.60338 130 ft 18 kts 76°
2026-05-03 21:27 40.07271 116.60453 126 ft 5 kts 83°
2026-05-03 21:27 40.07274 116.60490 125 ft 1 kts 83°
2026-05-03 21:27 40.07275 116.60494 125 ft 0 kts 83°